Location: Fontevrault
(47.1823°N, 0.0493°E)
Time: 08:09:02
(UTC+00:00)

Lacrosse 5 - Pass Details

Date: 26 October 2021
Orbit: 714 x 724 km, 57.0° (Epoch: 28 August)

Event Time Altitude Azimuth Distance (km) Brightness Sun altitude
Exits shadow 02:56:07 11° 120° (ESE) 2,148 4.6 -37.0°
Drops below altitude 10° 02:56:14 10° 120° (ESE) 2,191 4.7 -37.0°
Sets 02:58:38 0° 123° (ESE) 3,115 5.5 -36.6°
